Flag for Spain Weather past 2 weeks in Alicante, Spain

70 °F

Passing clouds.

Feels Like: 70 °F
Forecast: 49 / 65 °F
Wind: 18 mph from Northwest

Location: Alicante / El Altet

Current Time: Nov 26, 2015 at 5:53:25 PM

Latest Report: Nov 26, 2015 at 5:00 PM

Visibility: N/A

Pressure: 29.92 "Hg

Humidity: 25%

Dew point: 32 °F

Location of AlicanteLocation

Historic Weather in Alicante — Graph


Alicante temperature yesterday

Maximum temperature yesterday: 70 °F (at 2:30 PM)
Minimum temperature yesterday: 46 °F (at 3:00 AM)
Average temperature yesterday: 60 °F

Past Weeks' High & Low Weather Summary

High79 °F (Nov 20, 4:00 PM)100% (Nov 12, 3:00 AM)30.48 "Hg (Nov 12, 3:00 AM)
Low41 °F (Nov 24, 5:30 AM)22% (Nov 26, 2:00 PM)29.80 "Hg (Nov 21, 12:30 PM)
Average60 °F64%30.21 "Hg
* Reported Nov 11 4:00 PM — Nov 26 4:30 PM, Alicante, Weather by CustomWeather, © 2015

Note: Actual official high and low records may vary slightly from our data, if they occured in-between our weather recording intervals... More about our weather records


Alicante weather history for previous 24 hours

Time TempWeatherWind HumidityBarometerVisibility
4:30 PM
Thu, Nov 26
70 °FPassing clouds.17 mph23%29.92 "HgN/A
4:00 PM72 °FPassing clouds.18 mph22%29.92 "HgN/A
3:30 PM72 °FPassing clouds.14 mph22%29.92 "HgN/A
3:00 PM72 °FPassing clouds.17 mph22%29.95 "HgN/A
2:30 PM72 °FPassing clouds.17 mph22%29.95 "HgN/A
2:00 PM72 °FPassing clouds.20 mph22%29.95 "HgN/A
1:30 PM70 °FPassing clouds.15 mph23%29.98 "HgN/A
1:00 PM70 °FSunny.20 mph23%29.98 "Hg10 mi
12:30 PM68 °FPassing clouds.23 mph24%29.98 "HgN/A
12:00 PM68 °FSunny.22 mph24%29.98 "Hg10 mi
11:30 AM66 °FSunny.28 mph26%29.98 "Hg10 mi
11:00 AM64 °FSunny.25 mph28%29.98 "Hg10 mi
10:30 AM64 °FSunny.29 mph26%29.98 "Hg10 mi
10:00 AM63 °FSunny.25 mph30%29.98 "Hg10 mi
9:30 AM61 °FSunny.22 mph31%29.98 "Hg10 mi
9:00 AM61 °FPassing clouds.26 mph31%29.98 "HgN/A
8:30 AM61 °FSunny.29 mph31%29.98 "Hg10 mi
8:00 AM61 °FSunny.30 mph31%29.95 "Hg10 mi
7:30 AM61 °FClear.30 mph31%29.95 "Hg10 mi
7:00 AM61 °FPassing clouds.22 mph31%29.95 "HgN/A
6:30 AM61 °FPassing clouds.26 mph31%29.95 "HgN/A
6:00 AM63 °FPassing clouds.18 mph30%29.95 "HgN/A
5:30 AM63 °FClear.25 mph30%29.95 "Hg10 mi
4:30 AM63 °FClear.24 mph34%29.95 "Hg10 mi
4:00 AM63 °FPassing clouds.14 mph34%29.98 "HgN/A
3:30 AM63 °FPassing clouds.14 mph34%29.98 "HgN/A
3:00 AM64 °FPassing clouds.20 mph37%29.98 "HgN/A
2:30 AM63 °FPassing clouds.18 mph39%29.98 "HgN/A
2:00 AM64 °FClear.22 mph40%30.01 "Hg10 mi
1:30 AM64 °FPassing clouds.18 mph43%30.01 "HgN/A
1:00 AM64 °FPassing clouds.17 mph43%30.01 "HgN/A
12:30 AM64 °FPassing clouds.13 mph46%30.04 "HgN/A
12:00 AM64 °FPassing clouds.10 mph46%30.04 "HgN/A
11:30 PM
Wed, Nov 25
63 °FPassing clouds.6 mph45%30.04 "HgN/A
11:00 PM63 °FPassing clouds.6 mph45%30.04 "HgN/A
10:30 PM64 °FPassing clouds.6 mph43%30.04 "HgN/A
10:00 PM66 °FPassing clouds.9 mph40%30.04 "HgN/A
9:30 PM66 °FPassing clouds.13 mph37%30.04 "HgN/A
9:00 PM66 °FPassing clouds.14 mph37%30.04 "HgN/A
8:30 PM66 °FPassing clouds.13 mph37%30.04 "HgN/A
8:00 PM66 °FPassing clouds.13 mph37%30.04 "HgN/A
7:30 PM64 °FPassing clouds.9 mph40%30.07 "HgN/A
7:00 PM64 °FPassing clouds.10 mph40%30.07 "HgN/A
6:30 PM66 °FPassing clouds.21 mph37%30.04 "HgN/A
6:00 PM66 °FPassing clouds.17 mph37%30.04 "HgN/A
5:30 PM68 °FPassing clouds.22 mph33%30.04 "HgN/A
5:00 PM68 °FPassing clouds.14 mph35%30.04 "HgN/A
Weather by CustomWeather, © 2015

See weather overviewHow to use our weather pages